Weather reports worldwide

Advertisment
Machrihanish, United Kingdom (3111): temperature & dewpoint: 18.11.2020 15:00:00 - 24.11.2020 15:00:00 (GMT)Machrihanish, United Kingdom (3111): temperature -20cm & temperature -100cm: 18.11.2020 15:00:00 - 24.11.2020 15:00:00 (GMT)Machrihanish, United Kingdom (3111): wind speed & gusts: 18.11.2020 15:00:00 - 24.11.2020 15:00:00 (GMT)Machrihanish, United Kingdom (3111): wind direction: 18.11.2020 15:00:00 - 24.11.2020 15:00:00 (GMT)Machrihanish, United Kingdom (3111): reduced air pressure: 18.11.2020 15:00:00 - 24.11.2020 15:00:00 (GMT)Machrihanish, United Kingdom (3111): visibility: 18.11.2020 15:00:00 - 24.11.2020 15:00:00 (GMT)Machrihanish, United Kingdom (3111): precipitation: 18.11.2020 15:00:00 - 24.11.2020 15:00:00 (GMT)
Date & Time tt [°C] td [°C] tt -20cm [°C] tt -100cm [°C] ff [km/h] ff [kn] fx [km/h] fx [kn] dd ppp [hPa] vv [km] rr [mm]
24.11.2020 15:00:00 7,4 6,8 - - 26 14 50 27 NW 1000,7 3,5 2,4
24.11.2020 14:00:00 11,9 10,1 - - 35 19 57 31 S 999,7 21 0,0
24.11.2020 13:00:00 12,0 10,2 - - 41 22 61 33 S 1000,4 30 0,0
24.11.2020 12:00:00 11,7 10,5 - - 41 22 57 31 S 1001,4 25 0,2
24.11.2020 11:00:00 10,9 10,1 - - 31 17 - - S 1002,7 15 0,4
24.11.2020 10:00:00 10,9 9,1 - - 34 18 - - S 1003,8 29 0,2
24.11.2020 09:00:00 10,7 9,0 9,7 10,5 29 16 - - S 1004,5 19 0,6
24.11.2020 08:00:00 10,3 9,5 - - 18 10 - - S 1004,8 40 0,0
24.11.2020 07:00:00 10,5 9,2 - - 22 12 - - S 1005,4 50 0,8
24.11.2020 06:00:00 10,3 9,7 - - 15 8 - - S 1005,9 11 0,8
24.11.2020 05:00:00 10,4 9,2 - - 13 7 - - SSW 1006,4 11 1,2
24.11.2020 04:00:00 10,2 9,1 - - 11 6 - - SSW 1007,0 14 0,6
24.11.2020 03:00:00 10,2 9,0 - - 13 7 - - SSW 1007,7 14 0,8
24.11.2020 02:00:00 10,8 9,0 - - 16 9 - - SW 1008,2 12 0,2
24.11.2020 01:00:00 11,0 8,8 - - 18 10 - - SW 1008,5 23 0,0
24.11.2020 00:00:00 11,2 8,9 - - 24 13 48 26 SW 1009,0 15 0,2
23.11.2020 23:00:00 11,5 10,2 - - 18 10 - - WSW 1008,7 19 0,4
23.11.2020 22:00:00 10,1 9,6 - - 11 6 - - WSW 1009,0 16 0,2
23.11.2020 21:00:00 10,4 9,4 - - 31 17 59 32 W 1008,9 5 1,2
23.11.2020 20:00:00 12,2 9,7 - - 41 22 59 32 SSW 1008,5 35 0,0
23.11.2020 19:00:00 11,7 9,6 - - 41 22 57 31 SSW 1008,8 11 0,0
23.11.2020 18:00:00 11,1 9,5 - - 34 18 54 29 S 1009,2 30 1,2
23.11.2020 17:00:00 10,3 9,6 - - 26 14 48 26 S 1010,3 4,2 4,0
23.11.2020 16:00:00 10,7 9,0 - - 35 19 57 31 SSW 1010,8 6 0,8
23.11.2020 15:00:00 10,4 8,2 - - 42 23 55 30 SSW 1011,5 40 0,0
23.11.2020 14:00:00 9,9 7,8 - - 35 19 65 35 SSW 1012,6 40 0,0
23.11.2020 13:00:00 9,2 7,3 - - 44 24 61 33 SSW 1013,0 40 0,4
23.11.2020 12:00:00 8,2 6,9 - - 42 23 68 37 S 1013,9 12 1,8
23.11.2020 11:00:00 7,6 6,2 - - 26 14 50 27 S 1015,4 7 2,2
23.11.2020 10:00:00 7,7 4,5 - - 29 16 54 29 S 1016,7 45 0,0
23.11.2020 09:00:00 7,0 3,8 9,7 10,7 22 12 - - SSE 1017,7 40 0,0
23.11.2020 08:00:00 6,5 2,9 - - 15 8 - - SE 1018,6 40 0,0
23.11.2020 07:00:00 6,2 3,1 - - 15 8 - - S 1019,4 40 0,0
23.11.2020 06:00:00 6,9 3,9 - - 18 10 - - SSW 1019,7 35 0,0
23.11.2020 05:00:00 7,3 4,2 - - 18 10 - - SSW 1019,9 35 0,0
23.11.2020 04:00:00 7,6 4,3 - - 24 13 46 25 SW 1020,8 35 0,0
23.11.2020 03:00:00 8,3 4,9 - - 35 19 - - WSW 1021,1 21 0,0
23.11.2020 02:00:00 7,9 5,1 - - 29 16 - - WSW 1021,6 20 0,0
23.11.2020 01:00:00 7,5 4,9 - - 29 16 - - WSW 1021,9 26 0,0
23.11.2020 00:00:00 7,3 4,9 - - 31 17 48 26 WSW 1022,0 18 0,0
22.11.2020 23:00:00 7,7 5,1 - - 37 20 - - WSW 1022,2 24 0,0
22.11.2020 22:00:00 7,6 4,9 - - 34 18 - - WSW 1022,2 24 0,0
22.11.2020 21:00:00 7,4 4,8 - - 35 19 50 27 WSW 1022,0 20 0,0
22.11.2020 20:00:00 7,4 4,5 - - 37 20 50 27 WSW 1022,0 21 0,0
22.11.2020 19:00:00 7,3 4,8 - - 37 20 48 26 WSW 1022,0 21 0,2
22.11.2020 18:00:00 7,7 5,4 - - 29 16 52 28 WSW 1021,7 16 0,0
22.11.2020 17:00:00 6,5 4,4 - - 37 20 57 31 W 1021,8 13 1,0
22.11.2020 16:00:00 7,7 4,5 - - 35 19 50 27 W 1021,4 23 1,0
22.11.2020 15:00:00 7,8 4,9 - - 37 20 50 27 W 1021,4 20 0,0
22.11.2020 14:00:00 7,2 4,7 - - 34 18 46 25 W 1021,7 22 1,2
22.11.2020 13:00:00 7,9 4,8 - - 34 18 46 25 WSW 1021,8 22 0,0
22.11.2020 12:00:00 7,6 5,0 - - 34 18 50 27 WSW 1022,1 21 0,0
22.11.2020 11:00:00 7,2 4,2 - - 37 20 52 28 WSW 1022,0 20 0,0
22.11.2020 10:00:00 7,4 4,4 - - 35 19 48 26 WSW 1021,5 19 0,2
22.11.2020 09:00:00 6,7 3,9 10,0 10,7 42 23 55 30 W 1021,5 10 0,6
22.11.2020 08:00:00 6,9 5,1 - - 41 22 57 31 WSW 1021,4 4,8 0,4
22.11.2020 07:00:00 7,3 5,5 - - 39 21 59 32 WSW 1020,7 19 0,6
22.11.2020 06:00:00 7,7 5,1 - - 39 21 65 35 WSW 1020,2 17 0,8
22.11.2020 05:00:00 7,8 4,9 - - 37 20 55 30 WSW 1020,0 16 0,0
22.11.2020 04:00:00 7,5 5,0 - - 39 21 65 35 WSW 1019,9 15 0,4
22.11.2020 03:00:00 8,2 5,1 - - 42 23 61 33 W 1019,2 16 0,0
22.11.2020 02:00:00 8,1 5,6 - - 41 22 61 33 W 1019,1 10 0,2
22.11.2020 01:00:00 7,6 3,8 - - 46 25 72 39 W 1019,2 21 0,4
22.11.2020 00:00:00 7,5 4,1 - - 48 26 72 39 W 1018,7 17 0,8
21.11.2020 23:00:00 8,1 5,1 - - 46 25 68 37 W 1018,5 16 0,2
21.11.2020 22:00:00 6,9 4,7 - - 52 28 81 44 W 1018,6 3,6 0,6
21.11.2020 21:00:00 8,3 4,3 - - 42 23 59 32 W 1017,9 20 0,2
21.11.2020 20:00:00 8,2 4,7 - - 39 21 55 30 WSW 1017,8 20 0,2
21.11.2020 19:00:00 8,7 5,1 - - 41 22 59 32 WSW 1017,8 23 0,0
21.11.2020 18:00:00 8,6 4,7 - - 39 21 61 33 WSW 1017,5 19 0,0
21.11.2020 17:00:00 9,5 3,8 - - 42 23 63 34 W 1016,9 22 0,0
21.11.2020 16:00:00 9,4 4,6 - - 39 21 54 29 W 1016,7 18 0,0
21.11.2020 15:00:00 9,8 4,6 - - 39 21 55 30 W 1016,7 18 0,0
21.11.2020 14:00:00 9,4 5,5 - - 39 21 59 32 W 1016,5 18 0,0
21.11.2020 13:00:00 8,5 6,5 - - 42 23 94 51 W 1016,6 12 0,6
21.11.2020 12:00:00 10,0 6,6 - - 42 23 55 30 WSW 1016,3 15 0,0
21.11.2020 11:00:00 10,5 7,5 - - 35 19 54 29 WSW 1016,3 18 0,0
21.11.2020 10:00:00 9,8 6,9 - - 37 20 50 27 WSW 1015,9 19 0,0
21.11.2020 09:00:00 9,8 6,8 10,2 10,7 35 19 52 28 WSW 1015,5 18 0,0
21.11.2020 08:00:00 9,5 6,9 - - 31 17 48 26 WSW 1014,9 16 0,0
21.11.2020 07:00:00 9,6 7,1 - - 37 20 50 27 W 1014,8 21 0,0
21.11.2020 06:00:00 9,6 7,1 - - 34 18 - - WSW 1014,6 25 0,0
21.11.2020 05:00:00 9,6 8,1 - - 29 16 - - W 1014,1 23 0,2
21.11.2020 04:00:00 9,2 7,8 - - 34 18 - - W 1014,7 11 1,2
21.11.2020 03:00:00 9,5 9,1 - - 26 14 - - WNW 1014,7 3,3 1,6
21.11.2020 02:00:00 10,0 9,6 - - 26 14 55 30 W 1014,8 3,1 1,6
21.11.2020 01:00:00 11,8 10,5 - - 34 18 50 27 SW 1014,6 4,4 0,2
21.11.2020 00:00:00 12,1 10,5 - - 29 16 72 39 SW 1015,0 30 0,2
20.11.2020 23:00:00 12,3 9,8 - - 28 15 - - WSW 1015,6 27 0,0
20.11.2020 22:00:00 12,2 10,2 - - 28 15 50 27 WSW 1016,2 18 0,0
20.11.2020 21:00:00 12,2 10,0 - - 39 21 54 29 WSW 1016,1 27 0,0
20.11.2020 20:00:00 12,5 9,9 - - 29 16 46 25 WSW 1017,0 30 0,0
20.11.2020 19:00:00 12,5 10,4 - - 35 19 50 27 WSW 1017,2 30 0,0
20.11.2020 18:00:00 12,8 10,1 - - 37 20 52 28 WSW 1017,2 35 0,0
20.11.2020 17:00:00 12,8 10,2 - - 29 16 48 26 WSW 1017,4 45 0,0
20.11.2020 16:00:00 12,8 10,5 - - 31 17 48 26 WSW 1017,7 45 0,0
20.11.2020 15:00:00 12,9 10,6 - - 29 16 46 25 SW 1018,1 35 0,0
20.11.2020 14:00:00 12,6 11,0 - - 26 14 - - SW 1018,4 35 0,0
20.11.2020 13:00:00 12,2 10,9 - - 22 12 - - SW 1018,8 29 0,2
20.11.2020 12:00:00 11,8 11,1 - - 15 8 - - SSW 1020,1 3,4 1,0
20.11.2020 11:00:00 10,8 10,3 - - 9 5 - - SSW 1021,1 12 0,6
20.11.2020 10:00:00 10,3 9,9 - - 16 9 - - SSE 1021,2 8 0,4
20.11.2020 09:00:00 9,6 9,2 10,0 10,9 18 10 - - SE 1021,6 14 0,4
20.11.2020 08:00:00 9,2 8,6 - - 22 12 - - SSE 1022,4 16 0,2
20.11.2020 07:00:00 8,9 8,1 - - 21 11 - - SSE 1022,5 30 0,0
20.11.2020 06:00:00 8,4 7,6 - - 11 6 - - E 1023,2 35 0,0
20.11.2020 05:00:00 8,1 7,2 - - 21 11 - - S 1023,8 30 0,0
20.11.2020 04:00:00 7,8 6,9 - - 28 15 - - SSE 1024,7 12 0,0
20.11.2020 03:00:00 7,6 6,9 - - 13 7 - - SSE 1025,6 8 0,0
20.11.2020 02:00:00 7,1 6,3 - - 26 14 - - S 1026,5 7 0,0
20.11.2020 01:00:00 6,6 5,1 - - 24 13 - - SSE 1027,6 20 0,0
20.11.2020 00:00:00 6,9 3,7 - - 18 10 - - S 1028,5 30 0,0
19.11.2020 23:00:00 6,2 3,3 - - 13 7 - - ESE 1029,4 30 0,0
19.11.2020 22:00:00 4,8 3,2 - - 11 6 - - SSE 1030,4 35 0,0
19.11.2020 21:00:00 5,2 1,9 - - 13 7 - - SSW 1030,7 35 0,0
19.11.2020 20:00:00 6,0 2,2 - - 22 12 - - SW 1030,5 40 0,0
19.11.2020 19:00:00 6,3 3,8 - - 13 7 - - SW 1030,8 18 1,0
19.11.2020 18:00:00 7,3 3,6 - - 24 13 - - W 1030,8 30 0,0
19.11.2020 17:00:00 5,7 3,0 - - 8 4 - - SSW 1030,4 35 0,0
19.11.2020 16:00:00 6,0 3,0 - - 16 9 - - WSW 1030,2 25 0,0
19.11.2020 15:00:00 7,1 0,5 - - 18 10 - - NW 1030,4 30 0,0
19.11.2020 14:00:00 6,6 1,3 - - 9 5 - - N 1030,4 35 0,0
19.11.2020 13:00:00 6,9 1,1 - - 21 11 - - N 1029,2 35 0,0
19.11.2020 12:00:00 7,3 1,6 - - 18 10 - - NNW 1028,8 28 0,0
19.11.2020 11:00:00 7,3 0,8 - - 24 13 - - NW 1029,4 29 0,0
19.11.2020 10:00:00 6,8 -0,6 - - 21 11 - - NNW 1027,6 30 0,0
19.11.2020 09:00:00 6,0 -0,5 10,5 10,9 22 12 - - N 1026,0 30 0,0
19.11.2020 08:00:00 5,0 -0,3 - - 15 8 46 25 N 1024,7 30 0,0
19.11.2020 07:00:00 6,4 0,6 - - 35 19 52 28 N 1023,5 29 0,0
19.11.2020 06:00:00 7,1 0,1 - - 35 19 54 29 NNW 1021,7 28 0,0
19.11.2020 05:00:00 7,5 0,9 - - 37 20 61 33 NNW 1020,2 25 0,0
19.11.2020 04:00:00 7,5 2,4 - - 42 23 65 35 N 1018,3 26 0,0
19.11.2020 03:00:00 8,1 2,9 - - 39 21 59 32 N 1015,4 30 0,2
19.11.2020 02:00:00 8,7 4,0 - - 42 23 63 34 N 1012,1 35 0,0
19.11.2020 01:00:00 8,7 4,5 - - 41 22 59 32 N 1009,1 30 0,0
19.11.2020 00:00:00 9,6 6,5 - - 31 17 48 26 NW 1006,7 13 0,0
18.11.2020 23:00:00 9,6 6,5 - - 39 21 54 29 WNW 1004,7 23 0,0
18.11.2020 22:00:00 9,4 6,2 - - 41 22 52 28 WNW 1002,9 22 0,0
18.11.2020 21:00:00 8,7 6,5 - - 34 18 54 29 W 1001,4 24 0,0
18.11.2020 20:00:00 7,6 5,9 - - 18 10 55 30 SW 1000,7 9 1,4
18.11.2020 19:00:00 8,1 5,5 - - 31 17 59 32 SW 1000,9 8 0,6
18.11.2020 18:00:00 8,8 5,1 - - 31 17 55 30 SW 1001,0 30 0,0
18.11.2020 17:00:00 8,6 5,2 - - 42 23 63 34 WSW 1000,5 28 0,0
18.11.2020 16:00:00 8,1 4,5 - - 46 25 68 37 WSW 1000,5 30 0,0
18.11.2020 15:00:00 8,8 3,7 - - 44 24 65 35 SW 1000,4 29 0,0

tt = temperature
td = dewpoint
tt -20cm = temperature -20cm
tt -100cm = temperature -100cm
ff = wind speed
fx = gusts
dd = wind direction
ppp = reduced air pressure
vv = visibility
rr = precipitation

Next stations